Terminal Aerodrome Forecast
Issued by NWS Des Moines, IA

Home | Current Version | Previous Version | Text Only | Print | Product List | Glossary On
Versions: 1 2 3 4 5 6 7 8 9 10 11 12 13 14 15 16 17 18 19 20 21 22 23 24 25 26 27 28 29 30
000
FTUS43 KDMX 061120
TAFDSM
TAF
KDSM 061120Z 0612/0712 19013KT P6SM BKN110
     FM061600 23012KT P6SM SCT100
     FM070200 19006KT P6SM SCT080
     FM070900 24012KT P6SM BKN080=

USA.gov is the U.S. government's official web portal to all federal, state and local government web resources and services.